www.pogodaiklimat.ru

Погода и климат >> Архив погоды >> Кувейт >> Minagish


ПОГОДА в Minagish

  • Прогноз погоды в Minagish
  • Монитор погоды в Minagish
  • Климат города

АРХИВ ПОГОДЫ в Minagish

Время (UTC), дата Ветер
(напр.,м/с)
 
Видим.   Явления Облачность Т
(С)
Тd
(С)
f
(%)
Тe
(С)
Тes
(С)
Комфортность P
(гПа)
Po
(гПа)
Тmin
(С)
Tmax
(С)
R
(мм)
R24
(мм)
S
(см)
09 11.08 В 7-11
{12}
6000 м дым н/о +45.4 +13.7 16 +46 +46 опасность
перегрева
997.9 998.0
12 11.08 ЮВ 6-9
{12}
8000 м дым н/о +46.5 +8.1 10 +44 +44 опасность
перегрева
996.8 997.0
15 11.08 В 8-10
{11}
7000 м дым н/о +42.5 +11.4 16 +42 +42 опасность
перегрева
997.4 997.0
18 11.08 ЮВ 4-5
{11}
7000 м дым н/о +37.2 +9.4 19 +36 +36 очень
жарко
999.2 999.0
21 11.08 Ю 5-7
{8}
7000 м дымка н/о +34.7 +11.3 24 +34 +34 очень
жарко
999.1 999.0 +30.8 +47.4
00 12.08 Ю 5-6
{8}
8000 м дымка н/о +32.9 +10.3 25 +32 +32 жарко 998.6 999.0
03 12.08 В 1-3
{7}
7000 м дымка н/о +32.4 +9.0 24 +31 +31 жарко 999.9 1000.0
06 12.08 Ю 4-5
{7}
8000 м дымка н/о +40.2 +5.8 12 +37 +37 очень
жарко
1000.5 1001.0
09 12.08 З 4-10
{10}
9000 м дым н/о +47.7 -0.6 5 +44 +44 опасность
перегрева
998.5 999.0
12 12.08 В 4-8
{10}
9000 м дым н/о +49.0 -3.3 4 +45 +45 опасность
перегрева
996.9 997.0
15 12.08 В 10-14
{16}
7000 м дым н/о +44.6 +2.0 7 +43 +43 опасность
перегрева
996.7 997.0
18 12.08 ЮВ 5-7
{16}
8000 м дым н/о +39.8 +7.5 14 +37 +37 очень
жарко
998.5 999.0
21 12.08 Ю 4-5
{8}
9000 м дым н/о +37.2 +5.6 14 +34 +34 очень
жарко
998.1 998.0 +31.1 +50.0
00 13.08 Ю 4-6
{8}
9000 м дым н/о +36.3 +2.7 12 +33 +33 жарко 997.7 998.0
03 13.08 ЮЗ 4-5
{7}
9000 м дым н/о +34.7 +1.4 12 +31 +31 жарко 998.6 999.0
06 13.08 С 4-6
{7}
8000 м дым н/о +42.4 -3.1 6 +38 +38 очень
жарко
999.2 999.0
09 13.08 С 3-7
{7}
7000 м дым н/о +47.8 -3.7 4 +43 +43 опасность
перегрева
998.2 998.0
12 13.08 СВ 2-4
{7}
8000 м дым н/о +49.2 -5.7 3 +45 +45 опасность
перегрева
996.9 997.0
15 13.08 В 8-9
{12}
8000 м дым н/о +44.2 +1.8 8 +41 +41 опасность
перегрева
997.4 997.0
18 13.08 ЮВ 4-5
{12}
8000 м дым н/о +39.8 +4.6 12 +37 +37 очень
жарко
999.1 999.0
21 13.08 Ю 4-4
{6}
9000 м дым н/о +36.1 +3.8 13 +33 +33 жарко 999.3 999.0 +34.3 +49.8
00 14.08 ЮЗ 4-5
{6}
9000 м дым н/о +34.2 +7.1 19 +32 +32 жарко 999.3 999.0
03 14.08 З 3-3
{8}
8000 м дым н/о +33.7 +6.9 19 +32 +32 жарко 1000.7 1001.0
06 14.08 СЗ 4-5
{8}
8000 м дым н/о +44.6 +1.7 7 +41 +41 опасность
перегрева
1000.4 1000.0
09 14.08 С 5-10
{10}
8000 м дым н/о +48.6 -1.3 5 +45 +45 опасность
перегрева
999.4 999.0
12 14.08 С 5-8
{13}
9000 м дым н/о +48.2 -4.1 4 +44 +44 опасность
перегрева
997.9 998.0
15 14.08 С 7-8
{12}
8000 м дым н/о +46.0 -5.9 4 +42 +42 опасность
перегрева
997.9 998.0
18 14.08 СВ 2-3
{12}
7000 м дым н/о +42.7 -0.8 7 +39 +39 очень
жарко
1000.0 1000.0
21 14.08 С 5-6
{9}
7000 м дым н/о +37.9 -0.7 9 +34 +34 очень
жарко
1000.5 1001.0 +33.3 +49.3
00 15.08 СЗ 4-6
{9}
7000 м дым н/о +36.2 +4.7 14 +33 +33 жарко 1000.2 1000.0
03 15.08 СЗ 4-4
{7}
7000 м дым н/о +35.0 +6.1 17 +33 +33 жарко 1001.4 1001.0
06 15.08 С 7-10
{10}
8000 м дым н/о +42.6 +4.4 10 +40 +40 очень
жарко
1001.8 1002.0
09 15.08 С 5-10
{12}
8000 м дым н/о +46.7 +2.9 7 +43 +43 опасность
перегрева
1000.3 1000.0
12 15.08 С 5-9
{12}
8000 м дым н/о +48.3 +0.8 6 +45 +45 опасность
перегрева
998.5 999.0
15 15.08 С 5-6
{12}
8000 м дым н/о +45.6 +1.3 7 +42 +42 опасность
перегрева
998.8 999.0
18 15.08 Ю 3-4
{12}
7000 м дым н/о +38.5 +8.5 16 +36 +36 очень
жарко
1001.1 1001.0
21 15.08 ЮЗ 4-4
{5}
7000 м дым н/о +35.3 +7.3 18 +33 +33 жарко 1000.8 1001.0 +34.6 +48.8
00 16.08 СЗ 3-3
{5}
7000 м дым н/о +33.5 +4.2 16 +31 +31 жарко 1000.8 1001.0
03 16.08 ЮЗ 3-4
{9}
7000 м дымка н/о +31.3 +8.0 23 +30 +30 жарко 1002.1 1002.0
06 16.08 СВ 3-6
{9}
7000 м дымка н/о +41.2 +8.9 14 +39 +39 очень
жарко
1002.8 1003.0
09 16.08 СВ 4-8
{9}
7000 м дым н/о +44.8 +4.2 9 +42 +42 опасность
перегрева
1002.1 1002.0
12 16.08 В 4-6
{13}
7000 м дымка н/о +45.6 +6.4 10 +43 +43 опасность
перегрева
1000.7 1001.0
15 16.08 ЮВ 3-4
{7}
7000 м дым н/о +42.7 +8.6 13 +41 +41 опасность
перегрева
1000.1 1000.0
18 16.08 Ю 4-4
{7}
7000 м дымка н/о +37.5 +14.9 26 +39 +39 очень
душно
1001.6 1002.0
21 16.08 Ю 4-4
{5}
6000 м дымка н/о +34.0 +15.1 32 +36 +36 душно 1001.1 1001.0 +30.6 +48.0
00 17.08 ЮВ 5-7
{9}
2900 м дымка н/о +31.8 +26.7 74 +49 +49 опасность
перегрева
1000.5 1001.0
03 17.08 Ю 4-5
{7}
3200 м дымка н/о +31.3 +25.6 72 +46 +46 опасность
перегрева
1001.5 1002.0
06 17.08 ЮЗ 6-7
{9}
7000 м дымка н/о +42.9 +9.4 14 +41 +41 опасность
перегрева
1002.3 1002.0
09 17.08 СЗ 4-10
{10}
8000 м дым н/о +47.4 +2.8 7 +44 +44 опасность
перегрева
1001.1 1001.0
12 17.08 С 5-8
{11}
7000 м дым н/о +47.0 +6.0 9 +44 +44 опасность
перегрева
999.5 1000.0
15 17.08 В 6-8
{11}
5000 м дымка н/о +42.8 +14.8 20 +44 +44 опасность
перегрева
999.3 999.0
18 17.08 ЮВ 3-3
{11}
4800 м дымка н/о +37.2 +18.3 33 +41 +41 опасность
перегрева
1001.1 1001.0
21 17.08 Ю 5-6
{7}
4800 м дымка н/о +35.2 +19.0 39 +40 +40 очень
душно
1001.0 1001.0 +30.8 +48.1
00 18.08 ЮЗ 4-4
{7}
5000 м дымка н/о +32.4 +17.6 41 +36 +36 очень
душно
1001.1 1001.0
03 18.08 З 5-5
{6}
5000 м дымка н/о +32.5 +15.6 36 +35 +35 душно 1001.9 1002.0

 

Местоположение метеостанции Minagish (Кувейт): широта 29.07 долгота 47.53 высота над уровнем моря 189 м.

В архиве по умолчанию представлена погода в Minagish за последнюю неделю. Архивные данные за месяц целиком и за предыдущие месяцы, начиная с января 2011 года, Вы можете получить, выбрав интересующий диапазон дат из раскрывающегося списка и нажав кнопку "Ввод!".

Внимание! Время в таблицах - всемирное. Для получения местного времени необходимо прибавить поправку, которая в Minagish равна 3 ч.

Смотрите также архив погоды в соседних городах и на ближайших метеорологических станциях:

Погода в Sulaibiya (Кувейт) (29 км)
Погода в Jahra (Кувейт) (31 км)
Погода в Kuwait (Кувейт) (46 км)
Погода в Experimental Farm (Кувейт) (47 км)
Погода в Abraque Al Habari (Кувейт) (57 км)
Погода в Shuwaikh (Кувейт) (58 км)
Погода в Al-Shuaiba (Кувейт) (63 км)
Погода в Juluiah Port (Кувейт) (76 км)
Погода в Al-Wafra (Кувейт) (77 км)
Погода в Sabriyah (Кувейт) (82 км)

Пояснения к столбцам:

Ветер - указаны скорость ветра в м/с - средняя за 10 мин, порывы в срок и между сроками (в фигурных скобках) и направление, откуда дует ветер: С - северный, СВ - северо-восточный, В - восточный, ЮВ - юго-восточный, Ю - южный, ЮЗ - юго-западный, З - западный, СЗ - северо-западный.
Видимость - горизонтальная дальность видимости в метрах или километрах. При видимости от 1 до 10 км при отсутствии осадков обычно наблюдается дымка, при ухудшении видимости до 1 км и менее - туман. В сухую погоду видимость может ухудшаться дымом, пылью или мглою.
Явления - указаны атмосферные явления, наблюдавшиеся в срок или в последний час перед сроком; фигурными скобками обозначены явления, наблюдавшиеся между сроками (за 1-3 часа до срока); квадратными скобками обозначены град или гололедные отложения с указанием их диаметра в мм.
Облачность - указаны через наклонную черту общая и нижняя облачность в баллах и высота нижней границы облаков в метрах; квадратными скобками обозначены формы облаков: Ci - перистые, Cs - перисто-слоистые, Cc - перисто-кучевые, Ac - высококучевые, As - высокослоистые, Sc - слоисто-кучевые, Ns - слоисто-дождевые, Cu - кучевые, Cb - кучево-дождевые. Подробнее классификацию облаков см. в Атласе облаков (PDF).
T - Температура воздуха - температура, измеренная на высоте 2 м над землей.
Td - Температура точки росы - температура, при понижении до которой содержащийся в воздухе водяной пар достигнет насыщения.
f - Относительная влажность воздуха - влажноcть воздуха, измеренная на высоте 2 м над землей.
Te - Эффективная температура - температура, которую ощущает одетый по сезону человек в тени. Характеристика душности погоды. При расчете учитывается влияние влажности воздуха и скорости ветра на теплоощущения человека.
Tes - Эффективная температура на солнце - температура, которую ощущает человек, с поправкой на солнечный нагрев. Характеристика знойности погоды. Зависит от высоты солнца над горизонтом, облачности и скорости ветра. Ночью, в пасмурную погоду, а также при ветре 12 м/с и более поправка равна нулю.
P - Атмосферное давление - приведенное к уровню моря атмосферное давление.
Po - Атмосферное давление - измеренное на уровне метеостанции атмосферное давление.
Tmin - Минимальная температура - минимум температуры воздуха на высоте 2 м над землей.
Tmax - Максимальная температура - максимум температуры воздуха на высоте 2 м над землей.
R - Количество осадков - Количество выпавших осадков за период времени, мм. При наведении курсора мыши на число - период времени, за который выпало указанное количество осадков.
R24 - Количество осадков - Количество выпавших осадков за 24 часа, мм.
S - Снежный покров - Высота снежного покрова, см. При наведении курсора мыши на число - состояние снежного покрова и степень покрытия местности в баллах.